H-1 R/B(MABES), 16910

Orbit data source: Space-Track

H-1 R/B(MABES), 16910 is space debris in LEO originally from a launch on Tue, 12 Aug 1986 UTC via an H-1 launch vehicle from the Tanegashima Space Center (TNSTA). Debris objects in space refer to the collection of defunct objects orbiting the Earth. Examples of debris include non-operational satellites, rocket bodies, and fragments generated from explosions, collisions, or faulty payload assembly.

Loading next visibility...
Identifier
16910, 1986-061C
Orbit
LEO
Country
Flag of JPJP / JPN
Related business
Manufacturer
NAL
Mission
Spacecraft
Bus & Motor
NASDA ATTACHED, Unknown motor
Mass
294 kg wet, 294 kg dry
Launch date (UTC)
1986-08-12 (40 years ago)
Launch vehicle
H-1
Launch site
Tanegashima Space Center (TNSTA)
Object type
Payload
Rocket body
Debris
Shape & HBR
Cyl, 6.8 m
Radar Cross Section
29.020 m², Large (>1 m²)

Expand to show TLE details & history
Last TLE update: 21 hours ago

TLE from 21 hours ago
0 H-1 R/B(MABES)
1 16910U 86061C   26072.11142509 -.00000073  00000-0  17910-3 0  9990
2 16910  50.0073 345.6500 0072893  32.4762 103.2121 12.32654849782595
Epoch: 2026-03-13T02:40Z
TLE epoch observation values (Epoch: 2026-03-13T02:40:27.127Z)
Latitude
31.92132°
Longitude
-76.5504°
Altitude
1,553.201 km
Speed
7.088 km/s
True Right ascension
08h 57m 15s
True Declination
31° 46' 58"
Sunlit
Object was in full shadow at epoch
Visualization orbit readout
Latitude
Unknown
Longitude
Unknown
Altitude
Unknown
Speed
Unknown
Apparent Right ascension
Unknown
Apparent Declination
Unknown
Sunlit
N/A
Visualization observer readout
Local Sidereal Time
03:48:47
Azimuth
Unknown
Elevation
Unknown
Doppler factor
Unknown
Orbital elements
Apogee altitude
1,596.272 km
Perigee altitude
1,480.858 km
Semi-major axis
7,916.702 km
Eccentricity
0.00729
Inclination
50.0073°
RAAN
345.65°
Arg. of periapsis
32.4762°
True anomaly
104.02357°
Mean anomaly
103.2121°
Eccentric anomaly
103.618°
Mean motion
3.08125 °/min
Orbital period
116.84 mins
BSTAR
0.0001791
Loading maneuver chart data...
Computing Atmospheric mass density...
Loading historical data...
Loading historical data...
Loading historical data...
Loading historical data...
Loading historical data...
Loading historical data...
Loading historical data...
Other satellites on launch #61 in the year 1986 (1986-08-12 UTC)

Documentation

Showing up to 5 results
|